GW0850 Weather Reports


time (UTC)temp
F
wind
direction
speed
knots
gust
knots
rain 1hr
in
rain 24hr
in
rain mn
in
humidity
%
barometer
mb
20260504150554 69 265 0.0 3.5 0.00 0.00 0.00 51 1004.5
20260504140545 64 170 0.9 3.5 0.00 0.00 0.00 52 1005.0
20260504130527 59 158 1.7 1.7 0.00 0.00 0.00 58 1005.4
20260504110508 53 184 1.7 3.5 0.00 0.00 0.00 62 1005.7
20260504100448 53 161 2.6 3.5 0.00 0.00 0.00 62 1006.4
20260504081423 56 184 0.9 2.6 0.00 0.00 0.00 52 1007.3
20260504080422 55 184 0.9 2.6 0.00 0.00 0.00 53 1007.6
20260504070402 56 184 0.0 1.7 0.00 0.00 0.00 50 1008.7
20260504050328 54 85 0.0 0.0 0.00 0.00 0.00 52 1009.8
20260504045325 56 103 0.0 0.0 0.00 0.00 0.00 48 1009.8
20260504044320 58 274 0.0 0.0 0.00 0.00 0.00 44 1009.8
20260504043320 60 184 0.0 1.7 0.00 0.00 0.00 41 1009.7
20260504042320 60 184 0.9 1.7 0.00 0.00 0.00 41 1010.0
20260504041318 60 184 0.0 1.7 0.00 0.00 0.00 40 1009.9
20260504040318 60 199 0.9 2.6 0.00 0.00 0.00 41 1010.2
20260504035318 59 184 0.0 0.9 0.00 0.00 0.00 41 1010.4
20260504034312 60 184 0.0 0.9 0.00 0.00 0.00 40 1010.5
20260504033307 60 184 0.0 0.9 0.00 0.00 0.00 39 1010.8
20260504032306 61 192 0.0 2.6 0.00 0.00 0.00 38 1011.1
20260504031306 61 164 0.9 1.7 0.00 0.00 0.00 38 1010.7
20260504030306 61 184 0.0 1.7 0.00 0.00 0.00 38 1010.9
20260504025305 62 184 0.0 1.7 0.00 0.00 0.00 37 1011.0
20260504024304 61 184 0.0 0.9 0.00 0.00 0.00 37 1010.8
20260504023303 61 176 0.0 0.0 0.00 0.00 0.00 38 1010.9
20260504022301 62 199 0.0 0.9 0.00 0.00 0.00 35 1010.8
20260504021301 63 274 0.0 0.0 0.00 0.00 0.00 35 1010.9
20260504020301 64 166 0.0 2.6 0.00 0.00 0.00 33 1011.1
20260504015259 66 192 0.0 1.7 0.00 0.00 0.00 31 1010.8
20260504014257 66 198 0.0 1.7 0.00 0.00 0.00 31 1010.8
20260504013253 67 184 0.0 2.6 0.00 0.00 0.00 29 1010.9
20260504012253 67 191 0.0 2.6 0.00 0.00 0.00 29 1010.7
20260504011252 68 213 0.0 3.5 0.00 0.00 0.00 28 1010.5
20260504010249 68 304 0.0 2.6 0.00 0.00 0.00 29 1010.9
20260504005249 69 274 1.7 2.6 0.00 0.00 0.00 28 1010.8
20260504004244 70 253 0.0 5.2 0.00 0.00 0.00 25 1010.7
20260504003243 72 304 0.9 4.3 0.00 0.00 0.00 25 1010.8
20260504002242 74 258 0.0 5.2 0.00 0.00 0.00 23 1010.7
20260504001242 75 274 2.6 4.3 0.00 0.00 0.00 23 1010.7
20260504000242 75 274 1.7 5.2 0.00 0.00 0.00 21 1011.0
20260503235237 75 291 0.0 7.0 0.00 0.00 0.00 22 1010.8
20260503234233 76 237 3.5 7.0 0.00 0.00 0.00 21 1010.5
20260503233231 76 298 1.7 6.1 0.00 0.00 0.00 21 1010.5
20260503232231 77 262 0.0 7.0 0.00 0.00 0.00 20 1010.8
20260503231226 77 288 3.5 4.3 0.00 0.00 0.00 21 1010.9
20260503230226 77 192 0.0 6.1 0.00 0.00 0.00 21 1011.0
20260503225223 77 283 2.6 7.8 0.00 0.00 0.00 18 1011.0
20260503224218 76 4 4.3 4.3 0.00 0.00 0.00 20 1011.1
20260503223213 76 30 4.3 7.8 0.00 0.00 0.00 20 1010.9
20260503222213 76 57 3.5 7.8 0.00 0.00 0.00 20 1011.1
20260503221208 75 39 3.5 5.2 0.00 0.00 0.00 20 1011.1
20260503220207 75 352 0.0 6.1 0.00 0.00 0.00 22 1011.2
20260503215207 75 110 0.0 5.2 0.00 0.00 0.00 23 1011.3
20260503214207 75 4 0.0 3.5 0.00 0.00 0.00 25 1011.3
20260503213202 75 357 0.9 4.3 0.00 0.00 0.00 26 1011.3
20260503212202 76 12 6.1 7.8 0.00 0.00 0.00 23 1011.0
20260503211201 76 81 2.6 6.1 0.00 0.00 0.00 24 1011.1
20260503210200 76 358 0.9 7.0 0.00 0.00 0.00 24 1011.1
20260503205158 77 302 5.2 7.0 0.00 0.00 0.00 23 1011.2
20260503204158 77 217 4.3 6.1 0.00 0.00 0.00 24 1011.2
20260503203153 76 57 1.7 7.0 0.00 0.00 0.00 22 1011.4
20260503202153 77 177 2.6 7.0 0.00 0.00 0.00 24 1011.7
20260503201148 77 89 1.7 11.3 0.00 0.00 0.00 24 1011.8
20260503200147 76 205 2.6 7.8 0.00 0.00 0.00 25 1011.6
20260503195147 76 21 2.6 7.0 0.00 0.00 0.00 27 1011.7
20260503194145 77 290 1.7 7.0 0.00 0.00 0.00 27 1012.0
20260503193143 77 103 0.0 4.3 0.00 0.00 0.00 26 1011.9
20260503192140 75 303 5.2 9.6 0.00 0.00 0.00 27 1011.8
20260503191140 76 356 1.7 7.8 0.00 0.00 0.00 28 1011.8
20260503190140 74 29 6.1 13.0 0.00 0.00 0.00 25 1011.9
20260503185138 74 269 1.7 13.0 0.00 0.00 0.00 27 1011.8
20260503184136 74 58 0.9 7.8 0.00 0.00 0.00 25 1012.0
20260503183135 74 130 0.9 7.0 0.00 0.00 0.00 29 1011.8
20260503182132 71 301 3.5 13.0 0.00 0.00 0.00 28 1012.0
20260503181131 73 200 3.5 8.7 0.00 0.00 0.00 28 1012.1
20260503180126 74 274 2.6 11.3 0.00 0.00 0.00 28 1012.1
20260503175125 72 342 0.0 13.9 0.00 0.00 0.00 28 1012.2
20260503174125 73 12 4.3 7.8 0.00 0.00 0.00 30 1011.8
20260503173123 71 199 2.6 6.1 0.00 0.00 0.00 31 1011.9
20260503172123 70 32 1.7 7.8 0.00 0.00 0.00 31 1012.0
20260503171123 70 352 0.0 10.4 0.00 0.00 0.00 31 1012.6
20260503170122 71 36 7.0 9.6 0.00 0.00 0.00 32 1012.5